sat.trackr.live / text

‹ back to catalog

STARLINK-2736

NORAD 48640 · 2021-044C

PAYLOAD ACTIVE UNKNOWN

§ Identity

Operator
Country
US
Launch date
2021-05-26
Launch site
AFETR
Launch vehicle
Mass (kg)
RCS (m²)

Purposes: comms

External: N2YO · Heavens-Above · Gunter

§ Orbital elements

Epoch: 2026-05-25T02:20:05.902656Z

Period
94.01 min
Inclination
53.1573°
Eccentricity
0.0001620
Mean motion
15.31702633 rev/d
Perigee alt
469.6 km
Apogee alt
471.8 km
Semi-major
6,848.9 km
B*
1.4459e-5
RAAN
118.4388°
Arg perigee
102.0859°
Mean anomaly
258.0324°
Rev number
27,552

§ Raw data

STARLINK-27361 48640U 21044C   26145.09729054  .00000083  00000+0  14459-4 0  99942 48640  53.1573 118.4388 0001620 102.0859 258.0324 15.31702633275521

JSON: /api/v1/satellites/48640 · /tle

For live sub-satellite position, see the globe view (requires WebGL).

§ Visibility from observer

Set your observer location to see the next 7 days of passes ≥ 10°. The values pass through the URL so the page stays shareable.

No JS? Fill the form by hand. The geolocation button needs JavaScript.